Temperature
16 16 16 16 16 16 16 16 16 16 16 16 16 16 16 16 16 16 16 16 16 16 16 16 16 16 17 17 17 17 17 17 17 17 17 17 17 17 17 18 18 18 18
16 16 16 16 16 16 16 16 16 16 16 16 16 16 16 16 16 16 16 16 16 16 16 16 16 16 16 17 17 17 17 17 17 17 17 17 17 17 17 17 17 17 18
16 16 16 15 16 16 16 16 16 16 16 16 16 16 16 16 16 16 16 16 16 16 16 16 16 16 16 16 16 16 17 17 17 17 17 17 17 17 17 17 17 17 17
16 16 16 15 15 16 16 16 16 16 16 16 16 16 16 16 16 16 16 16 16 16 16 16 16 16 16 16 16 16 16 16 16 17 17 17 17 17 17 17 17 17 17
16 16 15 15 15 15 16 16 16 16 16 16 16 16 16 15 15 15 15 15 15 15 16 16 16 16 16 16 16 16 16 16 16 16 16 17 17 17 17 17 17 17 17
16 16 15 15 15 16 16 16 15 15 15 15 15 15 15 15 15 15 15 15 15 15 15 15 15 15 16 16 16 16 16 16 16 16 16 16 16 16 17 17 17 17 17
15 15 15 15 15 15 15 15 15 16 15 15 15 15 15 15 15 15 15 15 15 15 15 15 15 15 15 15 15 15 16 16 16 16 16 16 16 16 16 16 17 17 17
15 15 15 15 15 15 15 15 15 15 15 15 15 15 15 15 15 15 15 15 15 15 15 15 15 15 15 15 15 15 15 15 16 16 16 16 16 16 16 16 16 16 17
15 15 15 15 15 15 15 15 15 15 15 15 15 15 15 14 14 14 14 15 15 15 15 15 15 14 15 15 15 15 15 15 15 15 16 16 16 16 16 16 16 16 16
15 15 15 15 15 15 15 15 15 15 15 15 15 15 15 14 14 14 14 14 14 14 14 14 14 14 14 14 14 15 15 15 15 15 15 15 15 16 16 16 16 16 16
15 15 15 15 15 15 15 15 15 15 15 15 15 14 14 14 14 14 14 14 14 14 14 14 14 14 14 14 14 14 14 14 15 15 15 15 15 15 15 15 16 16 16
15 15 15 14 14 14 14 14 14 14 14 14 14 14 14 14 14 14 14 13 13 13 13 13 14 14 14 14 14 14 14 14 14 14 14 15 15 15 15 15 15 15 16
15 14 14 14 14 14 14 14 14 14 14 14 14 14 14 14 14 14 13 13 13 13 13 13 13 13 13 13 14 14 14 14 14 14 14 14 14 14 15 15 15 15 15
15 14 14 14 14 14 14 14 14 14 14 14 14 14 14 14 13 14 13 13 13 13 13 13 13 13 13 13 13 13 13 14 14 14 14 14 14 14 14 14 14 15 15
15 14 14 14 14 14 14 14 14 14 14 14 14 13 13 13 13 13 13 13 13 13 12 13 13 13 13 13 13 13 13 13 13 13 13 14 14 14 14 14 14 14 14
15 14 14 14 14 14 14 14 14 14 14 14 13 13 13 13 13 13 13 13 13 13 12 12 12 12 12 13 13 13 13 13 13 13 13 13 13 13 13 13 14 14 14
15 15 14 14 14 14 14 14 14 13 13 13 13 13 13 13 13 13 13 13 13 12 12 12 12 12 12 12 13 13 13 13 13 13 13 13 13 13 13 13 13 13 13
15 15 14 14 14 14 14 14 13 13 13 13 13 13 13 13 13 13 13 12 12 12 12 12 12 12 12 12 12 12 12 12 12 12 12 12 12 12 12 13 13 13 13
15 14 14 14 14 14 14 14 14 13 13 13 13 13 13 13 13 12 12 12 12 12 12 12 12 12 11 11 11 12 12 12 12 12 12 12 12 12 12 12 12 12 12
15 14 14 14 14 14 14 14 14 13 13 13 13 13 13 13 12 12 12 12 12 12 12 12 11 11 11 11 11 11 11 11 11 11 11 11 11 11 11 11 12 12 12
15 14 14 14 14 14 14 14 13 13 13 13 13 13 13 12 12 12 12 12 12 11 11 11 11 11 11 11 11 10 10 11 11 11 11 11 11 11 11 11 11 11 11
14 14 14 14 14 14 14 13 13 13 13 13 13 13 12 12 12 12 12 11 11 11 11 11 11 10 10 10 10 10 10 10 10 10 10 10 10 10 10 10 10 10 10
15 14 14 14 14 14 13 13 13 13 13 13 13 12 12 12 12 11 11 11 11 11 10 10 10 10 10 9 9 9 9 9 9 9 9 9 10 10 10 10 10 10 10
15 14 14 14 14 14 13 13 13 13 13 13 12 12 12 12 11 11 11 11 11 10 10 10 10 9 9 9 9 9 8 8 9 9 8 9 9 9 9 9 9 9 9
15 14 14 14 14 13 13 13 13 13 13 12 12 12 12 11 11 11 11 11 10 10 10 10 9 9 9 9 8 8 8 8 8 8 8 8 8 8 9 9 9 9 9
15 14 14 14 14 13 13 13 13 12 12 12 12 12 11 11 11 10 10 10 10 10 10 10 9 9 9 9 8 8 8 7 7 7 7 7 7 7 7 8 8 8 8
Wind_Speed
3 4 4 6 6 6 6 5 5 5 5 6 6 5 4 4 4 4 3 4 5 6 6 6 7 6 6 7 6 6 6 6 6 6 6 7 7 7 6 7 8 8 8
5 4 4 5 6 7 6 5 5 4 4 4 5 5 4 4 4 4 4 4 5 6 6 6 6 6 7 7 7 7 7 6 6 7 7 7 7 7 6 6 7 8 9
7 6 4 5 6 8 8 7 6 5 4 4 5 5 4 4 4 4 4 4 4 5 6 6 7 7 7 7 7 7 7 6 6 6 7 7 6 6 6 7 8 9 9
9 7 4 4 7 9 6 4 4 4 4 4 4 4 4 4 5 5 5 5 5 6 7 8 8 8 8 7 7 7 7 7 7 6 6 6 6 6 5 7 9 9 9
10 9 5 5 8 7 5 4 4 3 4 4 3 4 5 5 4 6 6 6 6 7 7 9 10 10 9 9 8 7 6 7 7 6 6 6 6 6 6 7 9 8 8
10 9 6 7 8 5 6 5 4 5 3 3 4 5 5 5 4 5 5 6 7 7 7 8 9 10 11 10 10 9 8 7 7 6 6 6 6 6 7 8 8 7 7
10 9 6 6 6 5 5 5 4 5 5 3 4 4 5 5 6 6 5 5 6 8 9 9 9 9 9 11 12 11 11 9 9 8 7 6 6 6 6 7 7 6 6
9 8 6 4 4 5 7 7 5 3 4 5 3 3 4 5 5 6 5 6 6 7 8 8 9 9 9 10 11 13 12 12 9 9 8 8 7 6 6 6 5 5 4
10 9 7 5 5 5 5 5 5 5 4 5 4 3 3 1 2 4 5 6 6 5 5 7 9 9 10 10 10 12 13 12 11 9 8 8 8 7 6 5 5 4 3
7 8 8 7 5 4 5 5 5 4 4 4 4 4 3 3 2 2 4 5 6 6 6 6 7 8 9 9 9 11 13 13 11 10 9 8 8 7 6 6 5 4 2
5 6 7 7 5 4 4 5 5 6 4 4 3 2 4 4 4 3 1 4 4 4 5 4 5 7 8 8 9 11 12 13 11 10 10 9 8 7 6 5 4 4 3
2 4 5 5 5 4 4 4 4 6 5 5 5 4 3 3 2 3 2 1 2 3 4 4 5 6 7 8 9 11 12 13 12 11 10 10 9 8 7 5 4 4 4
1 1 2 3 3 4 5 4 4 5 4 5 5 4 4 3 2 2 2 1 2 2 3 3 4 7 8 9 9 10 11 12 12 11 11 10 10 10 8 7 6 6 6
2 2 3 3 4 5 5 5 3 3 4 5 5 4 4 3 3 2 2 2 2 3 4 3 3 5 7 7 9 10 9 10 11 11 11 10 10 11 10 9 8 8 7
2 3 3 3 3 4 5 4 4 3 4 4 4 4 3 3 3 2 2 3 3 2 2 3 3 4 7 7 8 9 9 11 11 11 11 11 11 11 11 11 10 9 8
3 3 3 3 3 3 4 4 3 3 4 3 3 5 4 3 3 3 3 2 2 3 0 2 2 3 5 7 9 9 9 11 11 12 12 12 12 11 11 11 11 11 9
3 4 3 3 3 3 3 4 3 3 4 4 3 4 3 3 3 3 3 3 2 2 1 2 2 3 3 4 6 8 9 9 9 11 11 11 12 12 12 12 12 11 11
4 4 4 4 3 3 3 3 3 3 4 3 3 3 3 3 4 3 3 3 2 1 2 1 2 3 3 3 4 4 7 8 9 10 11 11 12 12 12 13 13 12 12
4 4 4 4 4 3 3 3 3 3 3 3 3 3 2 3 3 2 2 2 1 2 1 1 2 2 2 3 4 4 5 5 8 10 11 11 11 12 13 13 13 13 13
5 5 4 4 4 3 3 3 3 3 3 2 2 2 1 2 1 1 1 1 1 2 2 1 2 2 2 3 2 4 5 4 5 8 9 10 12 13 13 14 14 14 14
5 5 4 3 3 3 3 4 4 3 3 2 1 1 0 1 0 1 0 0 1 1 1 1 2 2 3 3 3 3 4 5 5 3 4 6 8 8 11 13 14 14 14
4 4 4 4 4 3 4 5 5 4 3 2 1 1 1 1 2 3 2 1 0 0 1 1 1 2 4 3 3 3 3 4 4 3 3 5 4 5 8 10 13 14 14
5 5 4 4 4 3 4 4 5 4 3 2 2 1 1 1 2 1 3 3 3 3 2 2 2 4 4 4 3 3 3 3 5 5 3 5 4 5 8 11 13 14 14
5 5 4 4 3 3 4 4 4 3 3 2 2 3 2 2 1 1 1 2 3 4 3 2 3 5 5 4 4 3 4 4 5 4 2 4 5 5 7 9 12 13 14
5 4 4 5 4 3 4 4 4 3 2 1 2 2 3 2 3 2 0 2 3 4 5 6 7 7 8 8 6 2 3 3 5 5 2 2 4 5 5 5 9 12 14
5 5 4 4 5 4 5 5 5 3 2 2 2 2 3 4 4 3 2 2 3 5 5 5 6 7 7 7 7 3 3 3 4 4 3 2 3 4 5 4 4 8 11
Wind_Direction
47 34 23 20 18 22 25 25 31 36 34 39 53 70 75 80 87 85 78 80 75 70 73 74 76 74 74 74 72 69 74 69 68 68 72 77 77 75 75 88 110 117 120
55 42 27 23 19 24 34 40 39 39 33 40 37 49 69 82 80 78 72 69 68 65 65 69 73 75 75 72 68 66 69 66 65 68 71 74 75 76 75 90 106 113 116
57 53 40 27 18 29 39 44 39 40 39 40 39 41 52 67 74 75 73 57 55 58 60 62 68 69 75 74 66 66 67 62 59 61 66 68 73 77 82 91 102 112 114
59 58 46 29 26 35 36 37 34 38 32 33 37 36 39 52 57 67 71 60 55 50 51 57 59 61 66 69 66 68 69 65 60 58 62 62 64 68 91 102 107 108 112
59 62 52 34 37 39 31 35 38 40 37 28 42 45 37 42 41 58 57 56 52 51 52 55 55 56 58 58 58 64 69 67 62 58 60 61 62 62 86 103 112 113 113
60 62 57 40 42 39 30 31 39 36 41 34 59 50 32 32 37 44 46 49 49 52 54 55 51 48 52 53 51 54 56 63 61 55 58 60 65 68 79 95 105 109 113
63 63 57 45 44 45 35 33 40 40 30 29 59 34 13 25 38 34 32 40 42 47 55 59 54 48 46 47 47 47 45 49 54 53 56 59 63 65 74 86 94 101 110
63 68 63 51 45 48 39 35 40 50 32 33 78 75 28 6 8 21 25 37 34 42 48 59 57 53 51 50 44 42 39 39 45 49 51 55 60 61 63 73 79 85 101
69 69 64 61 53 57 52 42 46 63 54 28 47 103 108 94 343 356 18 27 27 37 35 52 53 51 51 49 44 39 36 33 35 40 46 49 56 58 57 59 61 61 74
68 74 69 62 57 54 52 47 55 60 72 48 28 43 86 129 108 22 356 6 23 35 32 43 46 47 47 46 41 37 35 31 32 39 45 46 47 51 54 53 50 45 43
56 71 73 67 59 56 56 56 57 57 65 73 58 47 51 49 63 101 42 350 5 11 22 32 41 42 40 38 37 33 33 32 36 40 41 41 37 37 42 40 34 26 11
34 57 71 67 66 63 60 64 66 67 66 71 67 64 74 73 58 81 94 16 359 344 8 22 28 27 28 28 27 28 28 28 30 31 32 31 27 24 19 15 6 355 345
84 49 70 69 68 70 72 74 71 65 64 73 71 66 66 69 95 102 99 70 23 343 353 4 9 21 20 21 21 21 20 20 21 22 23 22 20 17 11 5 359 352 344
176 151 112 91 81 79 76 78 75 70 69 73 71 69 64 46 63 91 120 115 57 7 5 341 340 8 10 12 11 16 13 13 13 13 13 14 15 15 11 5 1 355 348
164 130 115 100 85 82 79 82 79 73 75 73 73 68 63 39 44 59 85 114 123 72 350 320 333 340 353 4 5 10 6 6 7 6 9 11 10 8 6 1 356 349 342
142 128 121 116 101 86 80 80 83 77 79 68 70 69 55 38 40 45 62 75 104 134 158 292 296 310 341 0 4 5 2 5 5 5 6 6 5 3 1 356 351 343 336
149 142 148 133 118 104 91 90 96 89 87 73 68 75 59 52 48 39 50 62 68 103 122 306 309 328 354 353 354 2 1 359 357 356 355 354 353 352 348 347 345 340 334
158 158 150 135 128 120 112 114 117 104 105 94 83 79 59 59 48 35 44 45 46 81 130 325 326 338 340 334 337 344 350 349 343 343 346 348 347 343 340 339 335 332 329
151 151 142 143 144 143 134 133 127 116 114 113 112 107 91 77 51 32 42 41 23 35 79 118 319 323 322 336 345 339 338 337 337 335 336 338 337 335 333 334 331 324 321
152 157 158 157 159 155 148 143 130 120 113 110 112 122 134 131 143 120 59 45 51 43 38 39 338 328 320 321 350 339 333 330 325 330 330 330 330 329 327 325 323 321 317
159 161 154 152 155 151 157 151 146 137 128 111 74 81 141 149 144 142 107 164 103 72 32 16 339 338 329 333 328 317 320 316 312 316 322 320 324 322 318 318 317 314 314
159 152 155 153 155 162 159 156 146 136 135 136 153 311 330 6 6 6 359 353 134 138 211 209 283 289 287 284 295 307 312 331 316 308 322 306 316 308 309 309 312 314 315
158 157 164 158 162 178 170 161 154 144 146 161 182 210 316 350 12 357 347 353 344 333 293 220 239 259 267 268 278 293 289 285 281 287 307 299 306 303 305 311 316 319 320
163 167 173 172 170 197 191 180 164 143 148 181 203 201 204 263 287 280 325 340 317 307 299 278 242 255 262 255 235 254 266 286 284 286 291 288 298 296 302 309 317 325 326
170 175 177 177 181 215 208 194 169 147 163 230 243 214 204 223 267 282 327 308 313 310 311 305 297 298 301 300 297 303 312 317 307 297 293 272 290 299 294 291 307 322 324
185 181 186 192 193 208 215 208 192 165 190 237 262 263 247 240 256 261 225 244 285 288 301 315 319 316 312 307 304 274 247 273 289 292 279 274 288 312 306 285 294 312 314
Height
1550 1549 1548 1547 1546 1545 1544 1543 1542 1542 1541 1541 1541 1540 1540 1540 1540 1539 1539 1538 1537 1536 1536 1535 1534 1533 1533 1533 1532 1532 1532 1531 1530 1530 1529 1528 1528 1526 1525 1523 1523 1525 1527
1551 1550 1549 1547 1546 1545 1545 1544 1543 1543 1542 1542 1542 1542 1542 1541 1541 1541 1540 1539 1539 1538 1537 1536 1536 1535 1534 1534 1534 1533 1533 1532 1531 1531 1530 1529 1528 1527 1526 1524 1524 1525 1527
1552 1551 1550 1548 1547 1546 1546 1545 1544 1544 1543 1543 1543 1543 1543 1543 1542 1542 1541 1541 1540 1539 1539 1538 1537 1537 1536 1536 1535 1535 1534 1533 1533 1532 1531 1530 1529 1527 1526 1524 1524 1526 1528
1553 1552 1550 1549 1548 1547 1546 1545 1545 1544 1544 1544 1544 1544 1544 1544 1544 1543 1543 1542 1541 1541 1540 1540 1539 1538 1538 1537 1536 1536 1535 1534 1534 1533 1532 1531 1529 1526 1524 1524 1525 1528 1530
1553 1552 1551 1550 1549 1548 1547 1546 1546 1545 1545 1546 1546 1546 1546 1545 1545 1545 1544 1544 1543 1542 1542 1542 1541 1540 1540 1539 1538 1537 1537 1536 1535 1534 1533 1532 1530 1526 1523 1524 1526 1530 1533
1554 1553 1552 1551 1550 1548 1548 1547 1546 1546 1546 1547 1547 1547 1547 1547 1546 1546 1546 1545 1544 1544 1543 1543 1542 1542 1541 1540 1539 1539 1538 1537 1536 1535 1534 1533 1531 1529 1526 1526 1529 1533 1535
1555 1554 1553 1551 1550 1549 1549 1548 1547 1547 1547 1547 1548 1548 1548 1548 1548 1547 1547 1546 1546 1545 1545 1544 1544 1543 1542 1542 1541 1540 1539 1538 1537 1537 1536 1535 1533 1532 1531 1531 1533 1535 1537
1556 1555 1554 1552 1551 1550 1550 1549 1548 1548 1548 1548 1548 1549 1549 1551 1549 1549 1548 1548 1547 1547 1546 1546 1545 1544 1544 1543 1542 1541 1540 1539 1538 1538 1537 1536 1535 1535 1535 1535 1536 1537 1539
1557 1556 1555 1554 1553 1552 1551 1550 1550 1549 1549 1549 1549 1549 1549 1550 1550 1551 1550 1549 1549 1548 1547 1547 1546 1546 1545 1544 1543 1542 1541 1540 1538 1538 1537 1537 1537 1537 1537 1537 1538 1538 1539
1558 1557 1556 1555 1554 1553 1552 1552 1551 1551 1550 1550 1550 1550 1550 1550 1550 1551 1552 1551 1550 1549 1549 1548 1547 1547 1546 1545 1544 1543 1541 1539 1538 1538 1538 1538 1538 1538 1538 1538 1539 1539 1540
1559 1558 1557 1556 1555 1554 1554 1553 1552 1552 1551 1551 1551 1551 1551 1551 1551 1551 1551 1552 1551 1551 1550 1549 1549 1548 1547 1546 1545 1543 1542 1539 1538 1538 1539 1539 1539 1539 1539 1539 1539 1539 1540
1559 1558 1558 1557 1556 1556 1555 1555 1554 1553 1553 1552 1552 1552 1552 1551 1551 1551 1552 1552 1552 1552 1551 1551 1550 1549 1548 1547 1545 1544 1543 1541 1540 1540 1540 1540 1540 1539 1539 1539 1539 1539 1539
1559 1558 1558 1558 1557 1557 1556 1556 1555 1555 1554 1554 1553 1553 1553 1553 1553 1553 1553 1553 1552 1553 1552 1552 1551 1550 1548 1547 1546 1545 1544 1542 1541 1541 1541 1540 1540 1539 1539 1538 1538 1538 1538
1559 1559 1559 1558 1558 1558 1557 1557 1557 1556 1556 1555 1555 1555 1554 1554 1554 1554 1554 1554 1553 1553 1553 1552 1551 1550 1549 1548 1546 1545 1544 1543 1542 1541 1541 1540 1540 1539 1538 1538 1537 1537 1536
1559 1559 1559 1559 1559 1558 1558 1558 1557 1557 1557 1557 1556 1556 1556 1555 1555 1555 1555 1555 1555 1553 1553 1552 1551 1550 1549 1548 1546 1545 1544 1543 1542 1541 1540 1539 1539 1538 1537 1536 1536 1535 1535
1558 1559 1559 1559 1559 1559 1559 1559 1558 1558 1558 1558 1558 1557 1557 1557 1556 1556 1556 1555 1555 1554 1553 1553 1552 1551 1549 1548 1547 1545 1544 1542 1541 1540 1539 1539 1538 1537 1536 1535 1534 1534 1533
1558 1558 1559 1559 1559 1559 1559 1559 1559 1559 1559 1558 1558 1558 1558 1557 1557 1557 1556 1555 1555 1554 1553 1552 1551 1550 1549 1548 1546 1545 1543 1542 1540 1539 1538 1537 1536 1535 1534 1534 1533 1532 1531
1557 1557 1558 1558 1559 1559 1559 1559 1559 1559 1559 1559 1558 1558 1558 1557 1557 1557 1556 1555 1555 1554 1553 1551 1551 1549 1548 1547 1545 1544 1543 1541 1540 1538 1537 1536 1535 1533 1532 1531 1530 1529 1528
1556 1557 1557 1558 1558 1558 1559 1559 1559 1559 1559 1559 1558 1558 1558 1557 1557 1556 1555 1555 1554 1553 1552 1551 1549 1548 1547 1546 1544 1543 1541 1540 1538 1537 1535 1534 1533 1531 1530 1528 1527 1526 1525
1555 1556 1557 1557 1557 1558 1558 1558 1559 1559 1558 1558 1558 1558 1557 1556 1556 1555 1554 1554 1553 1552 1551 1549 1548 1547 1545 1544 1542 1540 1538 1537 1536 1534 1533 1531 1530 1528 1527 1525 1524 1523 1521
1554 1555 1556 1556 1556 1557 1557 1558 1558 1558 1558 1558 1557 1557 1556 1556 1555 1554 1553 1552 1551 1550 1549 1548 1546 1545 1543 1542 1540 1538 1536 1534 1532 1531 1529 1528 1526 1524 1523 1521 1520 1518 1517
1553 1553 1554 1555 1555 1556 1556 1557 1557 1557 1557 1556 1556 1556 1555 1554 1553 1552 1551 1550 1550 1548 1546 1545 1544 1543 1541 1540 1538 1536 1533 1531 1528 1528 1525 1523 1522 1520 1518 1517 1515 1514 1513
1551 1552 1552 1553 1554 1554 1555 1555 1555 1555 1555 1554 1554 1554 1553 1552 1551 1550 1549 1548 1547 1546 1545 1544 1541 1540 1539 1537 1535 1533 1531 1528 1526 1524 1521 1518 1518 1516 1514 1512 1511 1510 1508
1549 1550 1551 1551 1552 1552 1553 1553 1553 1553 1552 1552 1552 1551 1551 1550 1549 1548 1547 1545 1544 1543 1542 1540 1539 1537 1536 1534 1532 1530 1527 1525 1523 1521 1519 1515 1513 1511 1509 1508 1506 1505 1503
1547 1548 1548 1549 1550 1550 1550 1550 1550 1550 1550 1549 1549 1549 1548 1547 1546 1545 1544 1542 1541 1540 1539 1537 1536 1534 1532 1531 1529 1526 1524 1521 1517 1516 1515 1512 1508 1506 1503 1502 1501 1499 1497
1545 1546 1546 1547 1547 1547 1547 1548 1547 1547 1546 1546 1546 1545 1545 1544 1543 1542 1540 1539 1537 1536 1534 1533 1531 1530 1528 1526 1525 1523 1520 1517 1514 1511 1510 1508 1504 1502 1497 1495 1494 1493 1491